{"data":{"norad_id":64841,"intl_designator":"2025-135BU","name":"LEMUR-2-KARENDARRELL","alt_names":[],"object_type":"PAYLOAD","status":"ACTIVE","operator":null,"country":"US","launch_date":"2025-06-23","launch_site_code":"AFWTR","launch_vehicle":null,"mission":null,"orbit_class":"UNKNOWN","rcs_meters":null,"size_class":null,"mass_kg":null,"dimensions":null,"purposes":["earth_obs"],"wikipedia_slug":null,"has_3d_model":false,"image_url":null,"decayed_at":null,"tle_current":{"epoch":"2026-05-25T00:51:54.832320Z","epoch_age_seconds":65764,"freshness":"FRESH","line1":"1 64841U 25135BU  26145.03605130  .00006255  00000+0  51104-3 0  9996","line2":"2 64841  97.7670 261.2923 0008265 293.5844  66.4511 14.99722395 50540","mean_motion":14.99722395,"eccentricity":0.0008265,"inclination_deg":97.767,"raan_deg":261.2923,"arg_perigee_deg":293.5844,"mean_anomaly_deg":66.4511,"bstar":0.00051104,"rev_number":5054,"period_min":96.017770008696,"perigee_km":562.01257766219,"apogee_km":573.49413442073,"semimajor_km":6945.8903560415,"source":"CELESTRAK","updated_at":"2026-05-25T13:38:13.572175Z"}}}